SPOT 5

Last updated on Wed Apr 06 2016 09:37:55 GMT+0000 (Coordinated Universal Time)

1 27421U 02021A 16097.05989738 .00000120 00000-0 38528-4 0 9996 2 27421 98.4642 152.3603 0134470 225.3248 133.6929 14.51784001722247
UTC large
Height (km)
Speed (km/s)
/
Latitude / Longitude
Inclination (degrees)
Orbital Period (minutes)
Azimuth
Elevation
Range (km)
Doppler Factor

Next 0 passes for location: London (51.5072 / 0.1276)

Sorry there are no passes over London.
SPOT 5